This is the latest recevied weather packets stored in our database for station/object W4KAB. If no packets are shown the sender has not sent any weather packets the latest 10 day(s).
| Time | Temp. | Humidity | Pressure | Rain* | Wind** | Luminosity | Snow |
|---|---|---|---|---|---|---|---|
| 1777560252 | 17.22° C | 69% | 1013 hPa | 0 mm | - | 45 W/m² | - |
| 1777559949 | 17.22° C | 66% | 1013.3 hPa | 0 mm | - | 42 W/m² | - |
| 1777559643 | 17.22° C | 70% | 1013 hPa | 0 mm | - | 35 W/m² | - |
| 1777559342 | 17.22° C | 72% | 1013 hPa | 0 mm | - | 38 W/m² | - |
| 1777559037 | 16.67° C | 74% | 1013.1 hPa | 0 mm | - | 37 W/m² | - |
| 1777558733 | 16.67° C | 74% | 1013.1 hPa | 0 mm | - | 36 W/m² | - |
| 1777558429 | 16.67° C | 75% | 1012.9 hPa | 0 mm | - | 55 W/m² | - |
| 1777558125 | 16.67° C | 73% | 1013 hPa | 0 mm | - | 69 W/m² | - |
| 1777557822 | 16.11° C | 73% | 1012.9 hPa | 0 mm | - | 61 W/m² | - |
| 1777557519 | 15.56° C | 80% | 1013.1 hPa | 0 mm | - | 35 W/m² | - |
| 1777557215 | 15.56° C | 77% | 1013.3 hPa | 0 mm | - | 46 W/m² | - |
| 1777556911 | 15.56° C | 85% | 1013.3 hPa | 0 mm | - | 40 W/m² | - |
| 1777556606 | 15° C | 81% | 1013.2 hPa | 0 mm | - | 111 W/m² | - |
| 1777556301 | 14.44° C | 79% | 1013.2 hPa | 0 mm | - | 29 W/m² | - |
| 1777555998 | 14.44° C | 82% | 1013.3 hPa | 0 mm | - | 29 W/m² | - |
| 1777555692 | 13.89° C | 83% | 1013.3 hPa | 0 mm | - | 28 W/m² | - |
| 1777555389 | 13.89° C | 85% | 1013.5 hPa | 0 mm | - | 28 W/m² | - |
| 1777555085 | 13.89° C | 86% | 1013.5 hPa | 0 mm | - | 38 W/m² | - |
| 1777554783 | 13.89° C | 86% | 1013.5 hPa | 0 mm | - | 43 W/m² | - |
| 1777554480 | 13.89° C | 88% | 1013.5 hPa | 0 mm | - | 46 W/m² | - |
| 1777554176 | 13.33° C | 87% | 1013.6 hPa | 0 mm | - | 41 W/m² | - |
| 1777553874 | 13.33° C | 87% | 1013.5 hPa | 0 mm | - | 34 W/m² | - |
| 1777553570 | 13.33° C | 87% | 1013.4 hPa | 0 mm | - | 21 W/m² | - |
| 1777553265 | 13.33° C | 88% | 1013.5 hPa | 0 mm | - | 19 W/m² | - |
| 1777552962 | 13.33° C | 88% | 1013.6 hPa | 0 mm | - | 16 W/m² | - |
* Rain latest hour (hover to see other rain measurements)
** Current wind speed in m/s (hover to see current wind gust speed)